Location: Beaver Brook Trail
(44.0290°N, 71.8137°W)
Time: 23:59:36
(UTC+00:00)

Altair - Pass Details

Date: 11 November 2024
Orbit: 1501 x 1683 km, 47.2° (Epoch: 03 December)

Event Time Altitude Azimuth Distance (km) Brightness Sun altitude
Rises 23:49:58 0° 288° (WNW) 4,656 11.2 -26.2°
Reaches altitude 10° 23:54:23 10° 270° (W) 3,691 10.5 -27.0°
Maximum altitude 23:59:41 17° 234° (SW) 3,206 9.7 -28.0°
Drops below altitude 10° 00:05:05 10° 199° (SSW) 3,753 9.7 -29.0°
Sets 00:09:41 0° 180° (S) 4,770 10.1 -29.8°
